Location: Bemmer
(51.5498°N, 5.6249°E)
Time: 12:59:21
(UTC+00:00)

ATLAS CENTAUR R/B - Pass Details

Date: 03 March 2021
Orbit: 475 x 670 km, 64.7° (Epoch: 30 March)

Event Time Altitude Azimuth Distance (km) Brightness Sun altitude
Rises 19:57:56 0° 238° (WSW) 2,519 5.2 -24.7°
Reaches altitude 10° 20:00:07 10° 245° (WSW) 1,644 4.2 -25.0°
Enters shadow 20:03:16 44° 300° (WNW) 680 2.1 -25.4°
